Home > Weather > Islamabad > Past weeks

Flag for Pakistan Past Weather in Islamabad, Pakistan — Yesterday and Last 2 Weeks

Now
97 °F

Passing clouds.


Feels Like: 98 °F
Forecast: 69 / 104 °F
Wind: 7 mph from Southwest

Location: Islamabad Airport

Current Time: May 26, 2016 at 12:00:37 PM

Latest Report: May 26, 2016 at 11:30 AM


Visibility: 4 mi

Pressure: 29.62 "Hg (27.86 "Hg at 554m altitude)

Humidity: 32%

Dew Point: 63 °F

Location of IslamabadLocation

Past Weather in Islamabad — Graph

°F

Islamabad Temperature Yesterday

Maximum temperature yesterday: 72 °F (at 12:00 AM)
Minimum temperature yesterday: 70 °F (at 2:00 AM)
Average temperature yesterday: 71 °F

High & Low Weather Summary for the Past Weeks

 TemperatureHumidityPressure
High109 °F (May 21, 3:00 PM)74% (May 24, 2:00 PM)29.95 "Hg (May 24, 2:00 PM)
Low70 °F (May 24, 3:00 AM)13% (May 18, 5:00 PM)29.45 "Hg (May 21, 5:30 PM)
Average89 °F41%29.64 "Hg
* Reported May 11 11:00 AM — May 26 11:00 AM, Islamabad, Weather by CustomWeather, © 2016

Note: Actual official high and low records may vary slightly from our data, if they occured in-between our weather recording intervals... More about our weather records

Advertising

Islamabad Weather History for the Previous 24 Hours

Scroll right to see more
 ConditionsComfort  
Time TempWeatherWind HumidityBarometerVisibility
11:00 AM
Thu, May 26
97 °FPassing clouds.7 mph32%29.62 "Hg4 mi
10:30 AM93 °FPassing clouds.7 mph36%29.62 "Hg5 mi
10:00 AM93 °FPassing clouds.7 mph36%29.62 "Hg5 mi
9:30 AM90 °FClear.9 mph41%29.62 "Hg5 mi
9:00 AM90 °FClear.9 mph41%29.62 "Hg5 mi
8:30 AM86 °FClear.12 mph43%29.62 "Hg5 mi
8:00 AM86 °FClear.12 mph43%29.62 "Hg5 mi
7:30 AM81 °FClear.5 mph54%29.59 "Hg5 mi
7:00 AM81 °FClear.5 mph54%29.59 "Hg5 mi
5:00 AM75 °FClear.9 mph61%29.53 "Hg4 mi
4:30 AM75 °FClear.12 mph61%29.53 "Hg4 mi
4:00 AM75 °FClear.12 mph61%29.53 "Hg4 mi
3:30 AM77 °FClear.9 mph57%29.53 "Hg4 mi
3:00 AM77 °FClear.9 mph57%29.53 "Hg4 mi
2:30 AM77 °FClear.5 mph61%29.53 "Hg4 mi
2:00 AM77 °FClear.5 mph61%29.53 "Hg4 mi
1:30 AM77 °FClear.5 mph61%29.53 "Hg4 mi
1:00 AM77 °FClear.5 mph61%29.53 "Hg4 mi
12:30 AM79 °FClear.7 mph58%29.56 "Hg4 mi
12:00 AM79 °FClear.7 mph58%29.56 "Hg4 mi
Weather by CustomWeather, © 2016

See weather overviewHow to use our weather pages